MB7UWV-13 Weather Reports


time (UTC)temp
F
wind
direction
speed
knots
gust
knots
rain 1hr
in
rain 24hr
in
rain mn
in
humidity
%
barometer
mb
20260508121826 59 119 0.0 0.0 0.00 0.00 0.00 65 1004.1
20260508120325 57 113 1.7 2.6 0.00 0.00 0.00 68 1004.1
20260508114825 58 324 0.0 0.0 0.00 0.00 0.00 65 1004.1
20260508113326 59 302 0.0 0.0 0.00 0.00 0.00 63 1003.7
20260508111825 58 119 0.9 0.9 0.00 0.00 0.00 66 1004.1
20260508110326 59 106 0.0 0.0 0.00 0.00 0.00 61 1004.1
20260508104826 57 149 0.0 0.0 0.00 0.00 0.00 66 1004.1
20260508103325 56 96 0.9 0.9 0.00 0.00 0.00 63 1004.1
20260508101826 56 317 0.9 0.9 0.00 0.00 0.00 67 1004.4
20260508100325 56 316 0.9 0.9 0.00 0.00 0.00 66 1004.1
20260508094825 55 309 0.0 0.9 0.00 0.00 0.00 65 1003.7
20260508093325 56 324 0.0 0.0 0.00 0.00 0.00 64 1004.1
20260508091825 58 318 2.6 2.6 0.00 0.00 0.00 61 1003.7
20260508090325 59 355 0.9 0.9 0.00 0.00 0.00 61 1003.7
20260508084825 58 282 0.0 0.0 0.00 0.00 0.00 62 1003.7
20260508083325 59 144 0.0 0.9 0.00 0.00 0.00 59 1003.7
20260508081825 57 205 0.0 0.9 0.00 0.00 0.00 62 1003.7
20260508080326 55 308 0.0 0.0 0.00 0.00 0.00 65 1003.7
20260508074825 56 294 0.9 1.7 0.00 0.00 0.00 64 1003.7
20260508073326 56 309 0.9 0.9 0.00 0.00 0.00 64 1003.4
20260508071826 56 132 0.9 0.9 0.00 0.00 0.00 66 1003.7
20260508070326 54 187 0.0 0.9 0.00 0.00 0.00 74 1003.4
20260508064825 54 116 0.9 1.7 0.00 0.00 0.00 73 1003.4
20260508063326 50 129 0.9 0.9 0.00 0.00 0.00 79 1003.0
20260508061825 49 144 0.0 0.9 0.00 0.00 0.00 83 1003.0
20260508060325 47 113 0.9 1.7 0.00 0.00 0.00 85 1003.0
20260508054825 47 125 0.9 1.7 0.00 0.00 0.00 86 1002.7
20260508053325 47 125 0.0 0.0 0.00 0.00 0.00 87 1002.7
20260508051826 46 86 0.0 0.0 0.00 0.00 0.00 87 1002.7
20260508050325 46 90 0.0 0.0 0.00 0.00 0.00 86 1002.7
20260508044826 47 109 0.0 0.0 0.00 0.00 0.00 85 1002.7
20260508043326 46 125 0.9 0.9 0.00 0.00 0.00 86 1002.4
20260508041826 46 111 0.9 0.9 0.00 0.00 0.00 87 1002.4
20260508040326 46 100 0.0 0.0 0.00 0.00 0.00 87 1002.4
20260508034825 46 91 0.0 0.0 0.00 0.00 0.00 86 1002.4
20260508033326 46 113 0.9 0.9 0.00 0.00 0.00 86 1002.0
20260508031825 46 107 0.0 0.9 0.00 0.00 0.00 87 1002.4
20260508030326 46 92 0.0 0.0 0.00 0.00 0.00 87 1002.4
20260508024825 46 16 0.0 0.0 0.00 0.00 0.00 86 1002.4
20260508023330 47 16 0.0 0.0 0.00 0.00 0.00 86 1002.0
20260508021825 46 357 0.0 0.0 0.00 0.00 0.00 87 1002.4
20260508020326 46 357 0.0 0.0 0.00 0.00 0.00 88 1002.0
20260508014826 46 357 0.0 0.0 0.00 0.00 0.00 88 1002.0
20260508013327 46 357 0.0 0.0 0.00 0.00 0.00 88 1002.0
20260508011828 46 357 0.9 0.9 0.00 0.00 0.00 88 1002.0
20260508010325 46 22 0.0 0.0 0.00 0.00 0.00 88 1002.0
20260508004826 46 22 0.0 0.0 0.00 0.00 0.00 88 1002.0
20260508003326 46 22 0.0 0.0 0.00 0.00 0.00 87 1002.0
20260508001826 45 30 0.0 0.0 0.00 0.00 0.00 87 1002.0
20260507234824 46 126 0.0 0.9 0.00 0.00 0.00 84 1002.0
20260507233325 48 199 0.0 0.0 0.00 0.00 0.00 84 1002.0
20260507230324 47 196 0.9 0.9 0.00 0.00 0.00 84 1002.0
20260507224827 47 164 0.9 0.9 0.00 0.00 0.00 84 1002.0
20260507223326 48 157 0.0 0.0 0.00 0.00 0.00 83 1002.0
20260507221828 49 190 0.9 0.9 0.00 0.00 0.00 81 1001.7
20260507220326 49 188 0.9 1.7 0.00 0.00 0.00 80 1002.0
20260507213326 49 168 0.9 0.9 0.00 0.00 0.00 82 1002.0
20260507211826 49 181 1.7 1.7 0.00 0.00 0.00 83 1002.0
20260507210325 49 198 1.7 1.7 0.00 0.00 0.00 83 1002.0
20260507203326 50 166 1.7 3.5 0.00 0.00 0.00 79 1001.7
20260507201825 50 169 1.7 2.6 0.00 0.00 0.00 81 1001.4
20260507200325 50 165 0.9 0.9 0.00 0.00 0.00 78 1001.4
20260507194826 51 174 2.6 2.6 0.00 0.00 0.00 76 1001.4
20260507193328 51 145 0.0 0.0 0.00 0.00 0.00 72 1001.4
20260507191826 52 186 1.7 1.7 0.00 0.00 0.00 71 1001.4
20260507190328 52 162 0.0 0.0 0.00 0.00 0.00 73 1001.4
20260507184825 53 182 0.0 0.0 0.00 0.00 0.00 71 1001.0
20260507183329 54 189 0.0 0.9 0.00 0.00 0.00 67 1001.0
20260507181825 54 179 0.0 0.9 0.00 0.00 0.00 65 1000.7
20260507180326 54 199 0.0 0.0 0.00 0.00 0.00 66 1000.7
20260507174827 55 170 0.0 0.0 0.00 0.00 0.00 65 1001.0
20260507173326 55 179 0.0 0.0 0.00 0.00 0.00 65 1001.0
20260507171825 55 184 0.0 0.9 0.00 0.00 0.00 61 1001.0
20260507170328 56 145 0.9 0.9 0.00 0.00 0.00 60 1001.0
20260507164825 56 188 1.7 2.6 0.00 0.00 0.00 59 1001.0
20260507163325 56 198 1.7 1.7 0.00 0.00 0.00 58 1001.0
20260507161826 56 198 2.6 2.6 0.00 0.00 0.00 58 1001.0
20260507160328 57 136 0.0 0.9 0.00 0.00 0.00 57 1001.0
20260507154825 57 147 0.9 1.7 0.00 0.00 0.00 57 1001.0
20260507153324 56 170 1.7 1.7 0.00 0.00 0.00 58 1001.0
20260507151825 56 169 1.7 1.7 0.00 0.00 0.00 59 1001.4
20260507150324 56 147 0.9 1.7 0.00 0.00 0.00 58 1001.4
20260507144827 56 122 1.7 2.6 0.00 0.00 0.00 61 1001.4
20260507143327 56 172 1.7 5.2 0.00 0.00 0.00 60 1001.7
20260507141825 55 194 3.5 6.1 0.00 0.00 0.00 61 1002.0
20260507140325 54 191 3.5 3.5 0.00 0.00 0.00 63 1002.0
20260507134825 53 139 0.9 1.7 0.00 0.00 0.00 64 1002.0
20260507133325 52 137 1.7 1.7 0.00 0.00 0.00 65 1002.0
20260507131825 52 185 2.6 3.5 0.00 0.00 0.00 65 1002.0
20260507130327 51 163 1.7 2.6 0.00 0.00 0.00 65 1002.4
20260507124825 50 170 0.0 0.0 0.00 0.00 0.00 69 1002.4
20260507123326 50 122 0.9 1.7 0.00 0.00 0.00 72 1002.4